• In Belarus
  • List of Countries
  • For 7 days
  • Water Temperature
  • Weather Map
  • Weather Widgets
  • user-avatar
    Login

    Hourly Weather Kazyvan

    Today, 5 June, Friday

    Time Temperature Precipitation Wind Pressure Humidity
    00:00 +13°C° 0 mm 2 mps 746 mmHg 91%
    01:00 +13°C° 0 mm 2 mps 747 mmHg 91%
    02:00 +13°C° 0 mm 2 mps 747 mmHg 91%
    03:00 +13°C° 0 mm 2 mps 748 mmHg 91%
    04:00 +13°C° 0 mm 2 mps 748 mmHg 89%
    05:00 +14°C° 0 mm 2 mps 748 mmHg 87%
    06:00 +15°C° 0 mm 2 mps 748 mmHg 85%
    07:00 +16°C° 0 mm 2 mps 748 mmHg 80%
    08:00 +18°C° 0 mm 2 mps 748 mmHg 74%
    09:00 +19°C° 0 mm 2 mps 748 mmHg 68%
    10:00 +20°C° 0.2 mm 3 mps 748 mmHg 65%
    11:00 +20°C° 0.2 mm 4 mps 748 mmHg 62%
    12:00 +21°C° 0.2 mm 4 mps 748 mmHg 59%
    13:00 +21°C° 0.4 mm 4 mps 748 mmHg 61%
    14:00 +21°C° 0.4 mm 4 mps 748 mmHg 62%
    15:00 +21°C° 0.4 mm 4 mps 748 mmHg 63%
    16:00 +21°C° 0.4 mm 4 mps 747 mmHg 69%
    17:00 +20°C° 0.4 mm 4 mps 747 mmHg 74%
    18:00 +19°C° 0.4 mm 3 mps 747 mmHg 79%
    19:00 +18°C° 0.2 mm 3 mps 747 mmHg 83%
    20:00 +16°C° 0.2 mm 3 mps 747 mmHg 87%
    21:00 +15°C° 0.2 mm 2 mps 748 mmHg 91%
    22:00 +14°C° 0.1 mm 3 mps 748 mmHg 91%
    23:00 +13°C° 0.1 mm 4 mps 748 mmHg 91%

    Tomorrow, 6 June, Saturday

    Time Temperature Precipitation Wind Pressure Humidity
    00:00 +13°C° 0.1 mm 4 mps 748 mmHg 92%
    01:00 +13°C° 0 mm 4 mps 748 mmHg 93%
    02:00 +13°C° 0 mm 3 mps 748 mmHg 94%
    03:00 +13°C° 0 mm 3 mps 748 mmHg 96%
    04:00 +14°C° 0 mm 3 mps 748 mmHg 95%
    05:00 +14°C° 0 mm 3 mps 748 mmHg 95%
    06:00 +14°C° 0 mm 3 mps 748 mmHg 95%
    07:00 +17°C° 0 mm 3 mps 749 mmHg 91%
    08:00 +18°C° 0 mm 3 mps 749 mmHg 86%
    09:00 +19°C° 0 mm 4 mps 749 mmHg 82%
    10:00 +20°C° 0.3 mm 4 mps 749 mmHg 81%
    11:00 +20°C° 0.3 mm 4 mps 749 mmHg 80%
    12:00 +21°C° 0.3 mm 4 mps 750 mmHg 78%
    13:00 +22°C° 0.3 mm 4 mps 750 mmHg 77%
    14:00 +22°C° 0.3 mm 4 mps 750 mmHg 76%
    15:00 +23°C° 0.3 mm 4 mps 750 mmHg 75%
    16:00 +24°C° 0.4 mm 3 mps 750 mmHg 77%
    17:00 +24°C° 0.4 mm 3 mps 749 mmHg 79%
    18:00 +24°C° 0.4 mm 2 mps 749 mmHg 81%
    19:00 +21°C° 0.9 mm 2 mps 750 mmHg 85%
    20:00 +20°C° 0.9 mm 3 mps 750 mmHg 89%
    21:00 +19°C° 0.9 mm 3 mps 750 mmHg 93%
    22:00 +19°C° 0.4 mm 3 mps 750 mmHg 94%
    23:00 +18°C° 0.4 mm 2 mps 751 mmHg 94%

    Day after tomorrow, 7 June, Sunday

    Time Temperature Precipitation Wind Pressure Humidity
    00:00 +18°C° 0.4 mm 2 mps 751 mmHg 95%
    01:00 +18°C° 0 mm 2 mps 751 mmHg 95%
    02:00 +18°C° 0 mm 2 mps 751 mmHg 95%
    03:00 +17°C° 0 mm 2 mps 751 mmHg 96%
    04:00 +18°C° 0 mm 2 mps 752 mmHg 95%
    05:00 +18°C° 0 mm 2 mps 752 mmHg 94%
    06:00 +19°C° 0 mm 2 mps 752 mmHg 94%
    07:00 +20°C° 0 mm 2 mps 752 mmHg 88%
    08:00 +23°C° 0 mm 2 mps 753 mmHg 83%
    09:00 +24°C° 0 mm 2 mps 753 mmHg 78%
    10:00 +25°C° 0 mm 3 mps 753 mmHg 73%
    11:00 +26°C° 0 mm 3 mps 753 mmHg 68%
    12:00 +27°C° 0 mm 3 mps 753 mmHg 63%
    13:00 +27°C° 0.1 mm 3 mps 753 mmHg 63%
    14:00 +28°C° 0.1 mm 3 mps 753 mmHg 62%
    15:00 +28°C° 0.1 mm 3 mps 753 mmHg 61%
    16:00 +27°C° 0.1 mm 3 mps 753 mmHg 65%
    17:00 +27°C° 0.1 mm 2 mps 753 mmHg 69%
    18:00 +27°C° 0.1 mm 2 mps 753 mmHg 73%
    19:00 +25°C° 0.1 mm 2 mps 753 mmHg 77%
    20:00 +23°C° 0.1 mm 1 mps 753 mmHg 82%
    21:00 +21°C° 0.1 mm 1 mps 753 mmHg 87%
    22:00 +21°C° 0 mm 1 mps 753 mmHg 87%
    23:00 +20°C° 0 mm 1 mps 753 mmHg 88%

    8 June, Monday

    Time Temperature Precipitation Wind Pressure Humidity
    00:00 +20°C° 0 mm 1 mps 753 mmHg 89%
    01:00 +20°C° 0 mm 1 mps 753 mmHg 89%
    02:00 +19°C° 0 mm 1 mps 753 mmHg 90%
    03:00 +17°C° 0 mm 0 mps 753 mmHg 90%
    04:00 +18°C° 0 mm 0 mps 753 mmHg 88%
    05:00 +19°C° 0 mm 0 mps 754 mmHg 87%
    06:00 +19°C° 0 mm 0 mps 754 mmHg 85%
    07:00 +21°C° 0 mm 0 mps 754 mmHg 80%
    08:00 +23°C° 0 mm 0 mps 754 mmHg 75%
    09:00 +24°C° 0 mm 0 mps 754 mmHg 70%
    10:00 +25°C° 0 mm 0 mps 754 mmHg 65%
    11:00 +28°C° 0 mm 1 mps 754 mmHg 61%
    12:00 +29°C° 0 mm 1 mps 753 mmHg 56%
    13:00 +29°C° 0 mm 1 mps 753 mmHg 56%
    14:00 +29°C° 0 mm 1 mps 753 mmHg 55%
    15:00 +29°C° 0 mm 1 mps 753 mmHg 55%
    16:00 +29°C° 0.3 mm 1 mps 753 mmHg 61%
    17:00 +28°C° 0.3 mm 1 mps 752 mmHg 67%
    18:00 +28°C° 0.3 mm 1 mps 752 mmHg 73%
    19:00 +26°C° 0.3 mm 1 mps 752 mmHg 77%
    20:00 +24°C° 0.3 mm 1 mps 752 mmHg 80%
    21:00 +23°C° 0.3 mm 1 mps 753 mmHg 84%
    22:00 +22°C° 0 mm 1 mps 753 mmHg 87%
    23:00 +20°C° 0 mm 2 mps 753 mmHg 89%

    9 June, Tuesday

    Time Temperature Precipitation Wind Pressure Humidity
    00:00 +20°C° 0 mm 2 mps 753 mmHg 92%
    01:00 +19°C° 0 mm 2 mps 753 mmHg 93%
    02:00 +19°C° 0 mm 2 mps 753 mmHg 94%
    03:00 +18°C° 0 mm 2 mps 753 mmHg 95%
    04:00 +19°C° 0 mm 2 mps 753 mmHg 94%
    05:00 +19°C° 0 mm 2 mps 753 mmHg 93%
    06:00 +20°C° 0 mm 3 mps 753 mmHg 92%
    07:00 +21°C° 0 mm 3 mps 753 mmHg 87%
    08:00 +22°C° 0 mm 3 mps 753 mmHg 81%
    09:00 +25°C° 0 mm 3 mps 754 mmHg 76%
    10:00 +25°C° 0 mm 4 mps 754 mmHg 72%
    11:00 +26°C° 0 mm 4 mps 754 mmHg 67%
    12:00 +27°C° 0 mm 4 mps 754 mmHg 63%
    13:00 +27°C° 0 mm 4 mps 754 mmHg 62%
    14:00 +27°C° 0 mm 4 mps 753 mmHg 62%
    15:00 +27°C° 0 mm 4 mps 753 mmHg 61%
    16:00 +27°C° 0 mm 4 mps 753 mmHg 65%
    17:00 +26°C° 0 mm 4 mps 753 mmHg 70%
    18:00 +26°C° 0 mm 4 mps 753 mmHg 74%
    19:00 +24°C° 0 mm 3 mps 753 mmHg 78%
    20:00 +22°C° 0 mm 3 mps 753 mmHg 81%
    21:00 +20°C° 0 mm 3 mps 754 mmHg 85%
    22:00 +19°C° 0 mm 3 mps 754 mmHg 85%
    23:00 +19°C° 0 mm 3 mps 754 mmHg 85%

    10 June, Wednesday

    Time Temperature Precipitation Wind Pressure Humidity
    00:00 +18°C° 0 mm 3 mps 754 mmHg 85%
    01:00 +17°C° 0 mm 3 mps 754 mmHg 85%
    02:00 +17°C° 0 mm 3 mps 754 mmHg 85%
    03:00 +17°C° 0 mm 3 mps 754 mmHg 85%
    04:00 +17°C° 0 mm 3 mps 754 mmHg 83%
    05:00 +17°C° 0 mm 3 mps 754 mmHg 82%
    06:00 +18°C° 0 mm 3 mps 754 mmHg 80%
    07:00 +20°C° 0 mm 4 mps 754 mmHg 76%
    08:00 +21°C° 0 mm 4 mps 754 mmHg 71%
    09:00 +23°C° 0 mm 4 mps 754 mmHg 67%
    10:00 +25°C° 0 mm 4 mps 754 mmHg 63%
    11:00 +26°C° 0 mm 4 mps 755 mmHg 59%
    12:00 +27°C° 0 mm 5 mps 755 mmHg 55%
    13:00 +28°C° 0 mm 5 mps 755 mmHg 56%
    14:00 +28°C° 0 mm 5 mps 754 mmHg 57%
    15:00 +28°C° 0 mm 5 mps 754 mmHg 58%
    16:00 +27°C° 0.1 mm 5 mps 754 mmHg 61%
    17:00 +27°C° 0.1 mm 4 mps 754 mmHg 64%
    18:00 +27°C° 0.1 mm 3 mps 754 mmHg 68%
    19:00 +25°C° 0 mm 3 mps 754 mmHg 72%
    20:00 +22°C° 0 mm 3 mps 754 mmHg 75%
    21:00 +20°C° 0 mm 3 mps 754 mmHg 79%
    22:00 +19°C° 0 mm 3 mps 754 mmHg 78%
    23:00 +19°C° 0 mm 3 mps 754 mmHg 77%
    Show more